When you browse on this site, cookies collect data to enhance your experience and personalize the content and advertising you see.
Visit our Privacy Policy to learn more. By continuing to use the site, you agree to this use of cookies and data.
  • în România
  • Lista ţărilor
  • Pe 7 zile
  • Temperatura apei
  • Hartă satelitară
  • Meteo pe hartă
  • Widget-uri
  • user-avatar
    Intrare

    Meteo pe oră la Birmingham

    Astăzi, 19 Iunie, Miercuri

    Timp Temperatura Precipitaţii Vânt Presiune Umiditate
    00:00 +11°C° 0 mm 0 m/s 744 mmHg 91%
    01:00 +11°C° 0 mm 0 m/s 744 mmHg 91%
    02:00 +12°C° 0 mm 0 m/s 743 mmHg 92%
    03:00 +12°C° 0 mm 0 m/s 743 mmHg 92%
    04:00 +12°C° 0 mm 0 m/s 743 mmHg 92%
    05:00 +13°C° 0 mm 1 m/s 743 mmHg 92%
    06:00 +13°C° 0 mm 1 m/s 743 mmHg 92%
    07:00 +14°C° 0 mm 1 m/s 743 mmHg 90%
    08:00 +15°C° 0 mm 2 m/s 743 mmHg 88%
    09:00 +15°C° 0 mm 2 m/s 743 mmHg 86%
    10:00 +16°C° 0.1 mm 2 m/s 743 mmHg 83%
    11:00 +16°C° 0.1 mm 3 m/s 743 mmHg 81%
    12:00 +17°C° 0.1 mm 3 m/s 743 mmHg 79%
    13:00 +17°C° 0.1 mm 3 m/s 743 mmHg 76%
    14:00 +18°C° 0.1 mm 2 m/s 743 mmHg 73%
    15:00 +18°C° 0.1 mm 2 m/s 742 mmHg 70%
    16:00 +18°C° 0.2 mm 2 m/s 742 mmHg 73%
    17:00 +17°C° 0.2 mm 2 m/s 742 mmHg 77%
    18:00 +17°C° 0.2 mm 2 m/s 742 mmHg 80%
    19:00 +15°C° 0 mm 2 m/s 743 mmHg 82%
    20:00 +13°C° 0 mm 3 m/s 743 mmHg 84%
    21:00 +12°C° 0 mm 3 m/s 743 mmHg 87%
    22:00 +11°C° 0 mm 3 m/s 744 mmHg 87%
    23:00 +10°C° 0 mm 3 m/s 744 mmHg 87%

    Mâine, 20 Iunie, Joi

    Timp Temperatura Precipitaţii Vânt Presiune Umiditate
    00:00 +9°C° 0 mm 3 m/s 744 mmHg 87%
    01:00 +9°C° 0 mm 3 m/s 744 mmHg 88%
    02:00 +8°C° 0 mm 3 m/s 744 mmHg 90%
    03:00 +8°C° 0 mm 3 m/s 744 mmHg 92%
    04:00 +9°C° 0 mm 3 m/s 744 mmHg 91%
    05:00 +10°C° 0 mm 3 m/s 744 mmHg 90%
    06:00 +10°C° 0 mm 3 m/s 745 mmHg 89%
    07:00 +12°C° 0.1 mm 4 m/s 745 mmHg 83%
    08:00 +13°C° 0.1 mm 4 m/s 745 mmHg 77%
    09:00 +14°C° 0.1 mm 4 m/s 745 mmHg 72%
    10:00 +14°C° 0.2 mm 4 m/s 745 mmHg 70%
    11:00 +15°C° 0.2 mm 4 m/s 746 mmHg 68%
    12:00 +15°C° 0.2 mm 4 m/s 746 mmHg 66%
    13:00 +15°C° 0.2 mm 5 m/s 746 mmHg 65%
    14:00 +15°C° 0.2 mm 5 m/s 746 mmHg 64%
    15:00 +16°C° 0.2 mm 5 m/s 746 mmHg 63%
    16:00 +15°C° 0.1 mm 5 m/s 746 mmHg 65%
    17:00 +14°C° 0.1 mm 4 m/s 746 mmHg 67%
    18:00 +14°C° 0.1 mm 4 m/s 746 mmHg 68%
    19:00 +12°C° 0 mm 4 m/s 747 mmHg 71%
    20:00 +11°C° 0 mm 3 m/s 747 mmHg 75%
    21:00 +9°C° 0 mm 3 m/s 747 mmHg 78%
    22:00 +9°C° 0 mm 3 m/s 748 mmHg 80%
    23:00 +8°C° 0 mm 2 m/s 748 mmHg 83%

    Poimâine, 21 Iunie, Vineri

    Timp Temperatura Precipitaţii Vânt Presiune Umiditate
    00:00 +7°C° 0 mm 2 m/s 748 mmHg 85%
    01:00 +7°C° 0 mm 2 m/s 748 mmHg 87%
    02:00 +7°C° 0 mm 2 m/s 748 mmHg 89%
    03:00 +7°C° 0 mm 2 m/s 748 mmHg 90%
    04:00 +7°C° 0 mm 3 m/s 749 mmHg 88%
    05:00 +8°C° 0 mm 3 m/s 749 mmHg 86%
    06:00 +9°C° 0 mm 3 m/s 749 mmHg 84%
    07:00 +10°C° 0 mm 3 m/s 750 mmHg 79%
    08:00 +12°C° 0 mm 3 m/s 750 mmHg 73%
    09:00 +13°C° 0 mm 4 m/s 750 mmHg 67%
    10:00 +14°C° 0 mm 4 m/s 750 mmHg 65%
    11:00 +14°C° 0 mm 4 m/s 751 mmHg 63%
    12:00 +15°C° 0 mm 4 m/s 751 mmHg 61%
    13:00 +16°C° 0 mm 3 m/s 751 mmHg 60%
    14:00 +17°C° 0 mm 3 m/s 751 mmHg 59%
    15:00 +17°C° 0 mm 3 m/s 751 mmHg 58%
    16:00 +17°C° 0 mm 3 m/s 751 mmHg 60%
    17:00 +17°C° 0 mm 3 m/s 751 mmHg 62%
    18:00 +16°C° 0 mm 2 m/s 751 mmHg 64%
    19:00 +15°C° 0 mm 2 m/s 752 mmHg 68%
    20:00 +13°C° 0 mm 2 m/s 752 mmHg 71%
    21:00 +10°C° 0 mm 2 m/s 752 mmHg 75%
    22:00 +11°C° 0 mm 1 m/s 752 mmHg 77%
    23:00 +10°C° 0 mm 1 m/s 752 mmHg 79%

    22 Iunie, Sâmbătă

    Timp Temperatura Precipitaţii Vânt Presiune Umiditate
    00:00 +9°C° 0 mm 1 m/s 752 mmHg 82%
    01:00 +8°C° 0 mm 0 m/s 752 mmHg 80%
    02:00 +7°C° 0 mm 0 m/s 752 mmHg 80%
    03:00 +7°C° 0 mm 0 m/s 752 mmHg 81%
    04:00 +8°C° 0 mm 0 m/s 752 mmHg 79%
    05:00 +10°C° 0 mm 1 m/s 752 mmHg 77%
    06:00 +10°C° 0 mm 1 m/s 753 mmHg 75%
    07:00 +12°C° 0 mm 1 m/s 753 mmHg 70%
    08:00 +13°C° 0 mm 1 m/s 753 mmHg 66%
    09:00 +15°C° 0 mm 1 m/s 753 mmHg 61%
    10:00 +16°C° 0 mm 1 m/s 753 mmHg 59%
    11:00 +18°C° 0 mm 1 m/s 753 mmHg 56%
    12:00 +19°C° 0 mm 1 m/s 753 mmHg 54%
    13:00 +20°C° 0 mm 1 m/s 753 mmHg 53%
    14:00 +20°C° 0 mm 1 m/s 752 mmHg 53%
    15:00 +21°C° 0 mm 1 m/s 752 mmHg 52%
    16:00 +20°C° 0 mm 1 m/s 752 mmHg 55%
    17:00 +20°C° 0 mm 1 m/s 752 mmHg 58%
    18:00 +20°C° 0 mm 1 m/s 752 mmHg 61%
    19:00 +18°C° 0 mm 1 m/s 752 mmHg 67%
    20:00 +15°C° 0 mm 1 m/s 752 mmHg 72%
    21:00 +14°C° 0 mm 1 m/s 753 mmHg 78%
    22:00 +13°C° 0 mm 1 m/s 753 mmHg 80%
    23:00 +13°C° 0 mm 1 m/s 753 mmHg 81%

    23 Iunie, Duminică

    Timp Temperatura Precipitaţii Vânt Presiune Umiditate
    00:00 +12°C° 0 mm 1 m/s 753 mmHg 83%
    01:00 +12°C° 0 mm 1 m/s 752 mmHg 84%
    02:00 +11°C° 0 mm 1 m/s 752 mmHg 86%
    03:00 +11°C° 0 mm 1 m/s 752 mmHg 88%
    04:00 +12°C° 0 mm 1 m/s 752 mmHg 87%
    05:00 +12°C° 0 mm 2 m/s 752 mmHg 87%
    06:00 +13°C° 0 mm 2 m/s 753 mmHg 87%
    07:00 +14°C° 0 mm 2 m/s 753 mmHg 81%
    08:00 +16°C° 0 mm 3 m/s 753 mmHg 76%
    09:00 +17°C° 0 mm 3 m/s 753 mmHg 71%
    10:00 +18°C° 0 mm 4 m/s 753 mmHg 68%
    11:00 +18°C° 0 mm 4 m/s 753 mmHg 65%
    12:00 +19°C° 0 mm 5 m/s 753 mmHg 62%
    13:00 +19°C° 0.1 mm 5 m/s 752 mmHg 65%
    14:00 +19°C° 0.1 mm 5 m/s 752 mmHg 68%
    15:00 +19°C° 0.1 mm 5 m/s 752 mmHg 71%
    16:00 +19°C° 0.1 mm 5 m/s 752 mmHg 73%
    17:00 +17°C° 0.1 mm 5 m/s 752 mmHg 76%
    18:00 +17°C° 0.1 mm 5 m/s 751 mmHg 78%
    19:00 +15°C° 0.2 mm 5 m/s 752 mmHg 80%
    20:00 +14°C° 0.2 mm 5 m/s 752 mmHg 82%
    21:00 +13°C° 0.2 mm 5 m/s 752 mmHg 84%
    22:00 +13°C° 0.4 mm 5 m/s 752 mmHg 86%
    23:00 +13°C° 0.4 mm 5 m/s 752 mmHg 89%

    24 Iunie, Luni

    Timp Temperatura Precipitaţii Vânt Presiune Umiditate
    00:00 +11°C° 0.4 mm 6 m/s 751 mmHg 91%
    01:00 +13°C° 0.3 mm 6 m/s 751 mmHg 92%
    02:00 +12°C° 0.3 mm 7 m/s 751 mmHg 93%
    03:00 +12°C° 0.3 mm 7 m/s 750 mmHg 93%
    04:00 +12°C° 0.7 mm 8 m/s 750 mmHg 93%
    05:00 +12°C° 0.7 mm 8 m/s 750 mmHg 92%
    06:00 +12°C° 0.7 mm 8 m/s 750 mmHg 91%
    07:00 +12°C° 0.3 mm 8 m/s 750 mmHg 92%
    08:00 +12°C° 0.3 mm 7 m/s 750 mmHg 92%
    09:00 +12°C° 0.3 mm 7 m/s 750 mmHg 92%
    10:00 +14°C° 0.1 mm 7 m/s 750 mmHg 92%
    11:00 +15°C° 0.1 mm 7 m/s 749 mmHg 91%
    12:00 +15°C° 0.1 mm 7 m/s 749 mmHg 91%
    13:00 +16°C° 0.1 mm 6 m/s 749 mmHg 90%
    14:00 +16°C° 0.1 mm 6 m/s 749 mmHg 90%
    15:00 +16°C° 0.1 mm 6 m/s 749 mmHg 90%
    16:00 +16°C° 0.2 mm 6 m/s 749 mmHg 90%
    17:00 +16°C° 0.2 mm 6 m/s 749 mmHg 89%
    18:00 +16°C° 0.2 mm 6 m/s 749 mmHg 89%
    19:00 +16°C° 0 mm 5 m/s 749 mmHg 90%
    20:00 +16°C° 0 mm 5 m/s 749 mmHg 91%
    21:00 +15°C° 0 mm 5 m/s 750 mmHg 91%
    22:00 +15°C° 0 mm 5 m/s 750 mmHg 92%
    23:00 +15°C° 0 mm 5 m/s 750 mmHg 93%
    Arată mai mult